[[{"header":{"parameterUnit":"m.s-1","parameterCategory":1,"la1":30.2991,"la2":30.254,"lo1":-89.0895,"lo2":-89.0444,"dy":0.0017,"dx":0.0017,"nx":28,"ny":28,"refTime":"2025-12-03T03:00:00:Z","depth":0,"parameterNumber":2,"parameterNumberName":"U-component_of_WINDS"},"data":[0,0,0,0,0,0,0,0,0,0,0,0,0,0,0,0,0,0,0,0,0,0,0,0,0,0,0,0,0,0,0,0,0,0,0,0,0,0,0,0,0,0,0,0,0,0,0,0,0,0,0,0,0,0,0,0,0,0,-3.2996,-3.2996,0,-3.2963,-3.2962,-3.2962,-3.2859,-3.2857,-3.2854,-3.2852,-3.2819,-3.282,-3.2821,0,0,0,0,0,0,0,0,0,0,0,0,0,-3.2973,-3.2974,-3.2996,-3.2996,-3.2996,-3.2963,-3.2962,-3.2962,-3.2859,-3.2857,-3.2854,-3.2851,-3.2819,-3.282,-3.2822,0,0,0,0,0,0,0,0,0,0,0,0,0,-3.2965,-3.2974,-3.2996,-3.294,-3.2935,-3.2963,-3.2962,-3.2962,-3.286,-3.2857,-3.2853,-3.285,-3.2818,-3.282,-3.2822,-3.2901,0,0,-3.2827,-3.2828,0,0,0,0,0,0,0,0,-3.2966,-3.2966,-3.2949,-3.2944,-3.2938,-3.2911,-3.2941,-3.2941,-3.2861,-3.2889,-3.2852,-3.2848,-3.2853,-3.2851,-3.2853,-3.29,-3.2898,-3.2828,-3.2829,-3.2829,-3.283,0,0,0,0,0,0,0,-3.2967,-3.2967,-3.2983,-3.2949,-3.2942,-3.2917,-3.2912,-3.2941,-3.289,-3.2886,-3.2878,-3.2876,-3.2849,-3.2851,-3.2851,-3.2898,-3.2828,-3.2829,-3.283,-3.2831,-3.3006,-3.301,0,0,0,0,0,0,-3.2975,-3.2968,-3.2984,-3.2982,-3.2944,-3.292,-3.2915,-3.2924,-3.289,-3.2881,-3.2879,-3.2871,-3.285,-3.2849,-3.285,-3.2938,-3.2829,-3.2831,-3.2832,-3.3003,-3.3007,-3.3011,0,0,0,0,0,0,-3.2975,-3.2977,-3.2985,-3.2973,-3.2972,-3.2924,-3.2935,-3.2925,-3.2926,-3.2884,-3.2874,-3.289,-3.2847,-3.2847,-3.2889,-3.2936,-3.2832,-3.2834,-3.2999,-3.3004,-3.3009,-3.3119,0,0,0,0,0,0,-3.2975,-3.2978,-3.3008,-3.2975,-3.2973,-3.3025,-3.2938,-3.2926,-3.293,-3.292,-3.2892,-3.2884,-3.2844,-3.2886,-3.289,-3.2937,-3.2835,-3.2994,-3.3001,-3.3007,-3.3111,-3.3127,-3.3141,0,0,0,0,0,-3.2974,-3.3041,-3.301,-3.3012,-3.3009,-3.3028,-3.3027,-3.298,-3.2934,-3.2963,-3.2936,-3.2885,-3.2931,-3.2892,-3.2895,-3.2943,-3.2991,-3.2999,-3.3007,-3.3104,-3.3124,-3.3141,0,0,0,0,0,0,-3.3082,-3.3035,-3.3,-3.3058,-3.3048,-3.3011,-3.3046,-3.3003,-3.3005,-3.2996,-3.2937,-3.2931,-3.2981,-3.2966,-3.2924,-3.3017,-3.2952,-3.2961,-3.3025,-3.3043,-3.3058,-3.306,-3.2837,0,0,0,0,0,-3.3112,-3.3131,-3.309,-3.3144,-3.3141,-3.3095,-3.3101,-3.3065,-3.3052,-3.3048,-3.3023,-3.3013,-3.3024,-3.3033,-3.3042,-3.3108,-3.31,-3.3143,-3.3158,-3.3171,-3.3179,-3.3211,-3.3229,-3.3037,-3.3037,-3.3037,0,0,-3.3175,-3.3152,-3.3168,-3.3165,-3.3153,-3.3174,-3.3092,-3.3118,-3.3132,-3.3052,-3.3088,-3.3071,-3.3055,-3.3109,-3.3132,-3.3098,-3.323,-3.3181,-3.3192,-3.3193,-3.3221,-3.324,-3.3256,-3.3042,-3.3041,-3.3041,0,0,-3.33,-3.3285,-3.3328,-3.3317,-3.3299,-3.3268,-3.3278,-3.3248,-3.3232,-3.3268,-3.3208,-3.3225,-3.3246,-3.3237,-3.3235,-3.3356,-3.3309,-3.336,-3.344,-3.3472,-3.3487,-3.35,-3.3542,-3.3558,-3.3369,-3.3369,-3.3369,0,-3.338,-3.3409,-3.3356,-3.3385,-3.3385,-3.3312,-3.3355,-3.3347,-3.3334,-3.3336,-3.3298,-3.3323,-3.3307,-3.3357,-3.3386,-3.3388,-3.3397,-3.3363,-3.3489,-3.3502,-3.3513,-3.3552,-3.3568,-3.3375,-3.3375,-3.3374,-3.3373,0,-3.3508,-3.3528,-3.3565,-3.3553,-3.3557,-3.3594,-3.3546,-3.3557,-3.3521,-3.3493,-3.353,-3.3509,-3.3511,-3.3521,-3.3486,-3.3566,-3.3545,-3.35,-3.3433,-3.3539,-3.3574,-3.3589,-3.3384,-3.3382,-3.338,-3.3379,0,0,-3.3699,-3.3656,-3.367,-3.3663,-3.3637,-3.3652,-3.3685,-3.3686,-3.3696,-3.3689,-3.3714,-3.3733,-3.369,-3.3689,-3.3652,-3.3681,-3.3775,-3.3631,-3.363,-3.3657,-3.386,-3.3893,-3.3912,-3.3744,-3.3747,-3.3749,-3.3861,0,-3.3816,-3.3868,-3.3821,-3.3882,-3.39,-3.3831,-3.3859,-3.3846,-3.3822,-3.3833,-3.3806,-3.382,-3.3763,-3.3761,-3.3786,-3.3759,-3.3815,-3.375,-3.3766,-3.3768,-3.3771,-3.393,-3.3966,-3.4072,-3.3874,-3.3877,-3.3878,0,-3.3959,-3.3957,-3.402,-3.3989,-3.3994,-3.4021,-3.4017,-3.4029,-3.4013,-3.3993,-3.399,-3.3945,-3.3975,-3.3911,-3.395,-3.3906,-3.391,-3.3898,-3.3901,-3.3899,-3.3829,-3.3932,-3.4105,-3.4121,-3.39,-3.3898,-3.3897,0,-3.4091,-3.4104,-3.4142,-3.4139,-3.4104,-3.4123,-3.411,-3.409,-3.4093,-3.4091,-3.4092,-3.4093,-3.4094,-3.4096,-3.4052,-3.401,-3.4096,-3.4029,-3.408,-3.4081,-3.41,-3.4099,-3.4275,-3.4106,-3.4105,-3.4105,-3.4105,0,-3.4225,-3.4266,-3.4201,-3.4225,-3.4268,-3.4213,-3.4258,-3.4237,-3.422,-3.4238,-3.4179,-3.4198,-3.414,-3.4152,-3.4118,-3.4155,-3.4156,-3.414,-3.413,-3.4145,-3.4146,-3.4145,-3.4137,-3.4109,-3.4108,-3.4107,-3.4107,0,-3.4379,-3.4337,-3.4374,-3.4338,-3.4329,-3.4363,-3.4331,-3.4352,-3.4323,-3.4346,-3.4349,-3.4304,-3.4315,-3.4272,-3.4277,-3.4253,-3.4307,-3.4286,-3.4313,-3.4305,-3.4358,-3.4353,-3.4538,-3.4559,-3.4378,-3.438,-3.4381,0,-3.4467,-3.4496,-3.4462,-3.447,-3.4459,-3.4473,-3.4475,-3.4423,-3.4428,-3.4411,-3.4433,-3.4439,-3.4441,-3.4463,-3.443,-3.4433,-3.441,-3.4475,-3.441,-3.4423,-3.441,-3.4408,-3.441,-3.4488,-3.4491,-3.4492,-3.4494,0,-3.4627,-3.4605,-3.461,-3.4609,-3.4613,-3.4609,-3.4602,-3.4612,-3.4555,-3.4564,-3.4574,-3.4575,-3.4579,-3.4586,-3.4581,-3.4567,-3.4521,-3.4515,-3.4526,-3.454,-3.4554,-3.4546,-3.4348,-3.451,-3.4509,-3.4507,-3.4507,-3.4506,-3.475,-3.4772,-3.4751,-3.4759,-3.4747,-3.4741,-3.4758,-3.473,-3.4738,-3.4736,-3.4705,-3.4721,-3.4703,-3.4692,-3.4682,-3.4694,-3.4664,-3.4681,-3.4685,-3.469,-3.4698,-3.4553,-3.4694,-3.4693,-3.4692,-3.4692,-3.4692,0,-3.4905,-3.4888,-3.4896,-3.4886,-3.4892,-3.4848,-3.4837,-3.4845,-3.486,-3.4846,-3.4849,-3.486,-3.4866,-3.4834,-3.4835,-3.4851,-3.483,-3.4853,-3.485,-3.4848,-3.4726,-3.4715,-3.487,-3.487,-3.487,-3.487,-3.487,-3.487,-3.4987,-3.5022,-3.4997,-3.5025,-3.5007,-3.5022,-3.5019,-3.5013,-3.5001,-3.5016,-3.502,-3.4999,-3.4978,-3.4977,-3.498,-3.497,-3.4973,-3.5004,-3.4987,-3.4874,-3.4856,-3.484,-3.4829,-3.5005,-3.5005,-3.5107,-3.5108,-3.5108]},{"header":{"parameterUnit":"m.s-1","parameterCategory":1,"la1":30.2991,"la2":30.254,"lo1":-89.0895,"lo2":-89.0444,"dy":0.0017,"dx":0.0017,"nx":28,"ny":28,"refTime":"2025-12-03T03:00:00:Z","depth":0,"parameterNumber":3,"parameterNumberName":"V-component_of_WINDS"},"data":[0,0,0,0,0,0,0,0,0,0,0,0,0,0,0,0,0,0,0,0,0,0,0,0,0,0,0,0,0,0,0,0,0,0,0,0,0,0,0,0,0,0,0,0,0,0,0,0,0,0,0,0,0,0,0,0,0,0,1.7461,1.7461,0,1.7544,1.7545,1.7546,1.7476,1.7473,1.747,1.7467,1.7556,1.7561,1.7566,0,0,0,0,0,0,0,0,0,0,0,0,0,1.7243,1.7247,1.746,1.7462,1.7463,1.7544,1.7545,1.7546,1.7477,1.7473,1.7469,1.7466,1.7555,1.7561,1.7567,0,0,0,0,0,0,0,0,0,0,0,0,0,1.7333,1.7249,1.746,1.7437,1.7436,1.7544,1.7545,1.7547,1.7477,1.7473,1.7468,1.7464,1.7553,1.756,1.7567,1.7703,0,0,1.7591,1.7594,0,0,0,0,0,0,0,0,1.7328,1.7341,1.744,1.7439,1.7438,1.7495,1.7501,1.7599,1.7478,1.7462,1.7467,1.7462,1.754,1.7548,1.7573,1.7707,1.7711,1.7592,1.7596,1.7599,1.7602,0,0,0,0,0,0,0,1.7322,1.7337,1.7494,1.7441,1.744,1.7424,1.7432,1.7519,1.7525,1.7463,1.7458,1.7469,1.7538,1.7566,1.7575,1.7712,1.7591,1.7598,1.7603,1.7606,1.7961,1.7965,0,0,0,0,0,0,1.7318,1.7333,1.7491,1.7496,1.7371,1.7431,1.744,1.7481,1.7523,1.7525,1.7472,1.7465,1.7555,1.7566,1.7578,1.7739,1.7599,1.7607,1.7611,1.7956,1.7962,1.7967,0,0,0,0,0,0,1.7313,1.7333,1.7488,1.7413,1.7432,1.744,1.7486,1.7485,1.7513,1.753,1.7531,1.75,1.7552,1.7567,1.7672,1.7741,1.761,1.7617,1.795,1.7958,1.7964,1.8062,0,0,0,0,0,0,1.7307,1.7331,1.7382,1.7415,1.7436,1.758,1.7491,1.749,1.7526,1.7517,1.7556,1.7559,1.755,1.7661,1.768,1.7749,1.7623,1.7944,1.7953,1.7962,1.8053,1.8072,1.8088,0,0,0,0,0,1.73,1.7407,1.7385,1.7405,1.7499,1.7584,1.7596,1.7583,1.7532,1.7583,1.7595,1.7557,1.773,1.7672,1.7693,1.7766,1.7939,1.7951,1.7961,1.8045,1.8068,1.8088,0,0,0,0,0,0,1.7384,1.7411,1.7387,1.7508,1.7544,1.7572,1.7636,1.7608,1.766,1.765,1.7633,1.7642,1.7752,1.7769,1.7704,1.7899,1.7827,1.7842,1.7883,1.7906,1.7923,1.7917,1.7629,0,0,0,0,0,1.7416,1.7482,1.7502,1.7607,1.7626,1.7628,1.7665,1.7651,1.7689,1.7704,1.7722,1.7761,1.7824,1.7866,1.7924,1.8055,1.8062,1.8115,1.8133,1.8147,1.8161,1.8231,1.8255,1.8003,1.8002,1.8002,0,0,1.7484,1.7507,1.755,1.7624,1.7651,1.7719,1.7642,1.7718,1.7769,1.7716,1.7815,1.7831,1.7872,1.799,1.8043,1.8008,1.8232,1.8161,1.8172,1.8178,1.8245,1.8269,1.829,1.801,1.8009,1.8007,0,0,1.7643,1.7667,1.7756,1.7784,1.7825,1.7826,1.7847,1.788,1.7887,1.7987,1.7948,1.8009,1.8118,1.8149,1.8179,1.835,1.8318,1.8369,1.8462,1.8531,1.855,1.8568,1.8629,1.8651,1.8383,1.8383,1.8383,0,1.7723,1.7824,1.7807,1.7885,1.7919,1.7873,1.7964,1.7992,1.8051,1.8076,1.8035,1.817,1.8195,1.832,1.8361,1.8387,1.8412,1.8365,1.8549,1.8566,1.8582,1.864,1.8663,1.8389,1.8389,1.8388,1.8387,0,1.792,1.7991,1.8058,1.8114,1.8156,1.8241,1.8237,1.8282,1.8265,1.827,1.8373,1.8401,1.8464,1.8493,1.8478,1.8616,1.8593,1.8551,1.8478,1.8613,1.8667,1.8689,1.8398,1.8396,1.8394,1.8392,0,0,1.8134,1.8179,1.8204,1.8229,1.827,1.8325,1.8408,1.8469,1.8508,1.8549,1.8619,1.8712,1.8673,1.8707,1.8695,1.8756,1.8889,1.8707,1.8707,1.874,1.9043,1.9075,1.9101,1.8868,1.8872,1.8875,1.904,0,1.8295,1.8437,1.8424,1.856,1.8625,1.8582,1.8654,1.8688,1.8695,1.8752,1.8761,1.8827,1.8771,1.8791,1.8849,1.8861,1.895,1.8849,1.8933,1.8937,1.8924,1.9129,1.9162,1.9316,1.9061,1.9065,1.9067,0,1.8501,1.8549,1.8691,1.8722,1.8749,1.8814,1.8868,1.8923,1.8961,1.8962,1.9,1.8978,1.9062,1.8988,1.9104,1.9035,1.9069,1.908,1.9086,1.9093,1.901,1.9142,1.9365,1.9388,1.91,1.9098,1.9095,0,1.8643,1.8743,1.8841,1.8863,1.8902,1.8949,1.8967,1.9,1.9038,1.9086,1.911,1.9168,1.92,1.9246,1.9241,1.9187,1.9359,1.9284,1.9363,1.9364,1.9402,1.9399,1.9633,1.9423,1.9423,1.9423,1.9422,0,1.8824,1.8913,1.8905,1.8965,1.9064,1.9048,1.9146,1.9159,1.9189,1.9251,1.9218,1.9278,1.9266,1.9326,1.9323,1.942,1.9434,1.9438,1.9436,1.9441,1.9441,1.9464,1.9453,1.9429,1.9427,1.9426,1.9425,0,1.9,1.8998,1.9102,1.9129,1.9138,1.9209,1.9233,1.9291,1.9295,1.9375,1.9393,1.94,1.9469,1.9467,1.9546,1.9544,1.9663,1.9649,1.965,1.9647,1.9726,1.9719,1.9983,2.0017,1.9785,1.9787,1.9789,0,1.9115,1.9182,1.9216,1.9255,1.9276,1.934,1.9377,1.9365,1.9406,1.9453,1.9505,1.9571,1.9622,1.9735,1.9748,1.9808,1.9795,1.9883,1.9804,1.9807,1.9797,1.9793,1.98,1.9899,1.9902,1.9904,1.9905,0,1.932,1.9316,1.9371,1.9426,1.9472,1.9515,1.9555,1.9589,1.958,1.9628,1.9697,1.9738,1.9817,1.9883,1.9941,1.9961,1.9933,1.993,1.9952,1.9958,1.9956,1.9959,1.9693,1.9924,1.9922,1.9921,1.992,1.9919,1.9469,1.9527,1.956,1.9622,1.965,1.9688,1.9743,1.9754,1.9811,1.9874,1.9863,1.9941,1.9977,2.0052,2.0077,2.0138,2.0107,2.0139,2.0147,2.0155,2.0164,1.9946,2.0149,2.0148,2.0148,2.0147,2.0147,0,1.9673,1.9692,1.975,1.9805,1.9855,1.9822,1.9864,1.9908,1.9976,2.0012,2.0063,2.0143,2.0207,2.0224,2.0286,2.0332,2.0321,2.0349,2.0345,2.0351,2.0188,2.0163,2.0357,2.0357,2.0357,2.0357,2.0357,2.0357,1.9785,1.988,1.988,1.9989,2.0008,2.0083,2.011,2.0145,2.0172,2.0263,2.0315,2.0326,2.0354,2.0418,2.0475,2.0479,2.0503,2.0537,2.0536,2.0383,2.0362,2.0342,2.0319,2.0542,2.0543,2.0694,2.0695,2.0696]}]]